| time (UTC) | temp C | wind direction | speed KPH | gust KPH | rain 1hr cm | rain 24hr cm | rain mn cm | humidity % | barometer mb |
| 20260504110638 | 14 | 155 | 0.0 | 1.6 | 0.00 | 0.10 | 0.00 | 76 | 1013.9 |
| 20260504110153 | 14 | 155 | 0.0 | 1.6 | 0.00 | 0.89 | 0.00 | 75 | 1013.9 |
| 20260504100615 | 16 | 113 | 0.0 | 4.8 | 0.00 | 0.89 | 0.00 | 69 | 1013.1 |
| 20260504100126 | 16 | 139 | 3.2 | 4.8 | 0.00 | 1.60 | 0.00 | 69 | 1013.2 |
| 20260504090141 | 16 | 158 | 3.2 | 22.5 | 0.00 | 2.21 | 0.00 | 67 | 1012.6 |
| 20260504081627 | 17 | 150 | 4.8 | 22.5 | 0.00 | 2.21 | 0.00 | 64 | 1012.4 |
| 20260504081111 | 17 | 181 | 8.0 | 22.5 | 0.00 | 2.21 | 0.00 | 63 | 1012.4 |
| 20260504080612 | 17 | 75 | 6.4 | 22.5 | 0.00 | 2.21 | 0.00 | 62 | 1012.6 |
| 20260504080123 | 17 | 126 | 6.4 | 19.3 | 0.00 | 4.90 | 0.00 | 63 | 1012.4 |
| 20260504070129 | 17 | 98 | 4.8 | 30.6 | 0.00 | 11.20 | 0.00 | 62 | 1012.0 |
| 20260504060113 | 17 | 160 | 9.7 | 33.8 | 0.00 | 15.60 | 0.00 | 59 | 1011.3 |
| 20260504050621 | 18 | 109 | 9.7 | 25.7 | 0.00 | 15.60 | 0.00 | 52 | 1010.8 |
| 20260504050132 | 18 | 110 | 9.7 | 20.9 | 0.00 | 18.80 | 0.00 | 53 | 1010.8 |
| 20260504045616 | 18 | 191 | 8.0 | 35.4 | 0.00 | 18.80 | 0.00 | 45 | 1010.7 |
| 20260504045129 | 18 | 157 | 12.9 | 35.4 | 0.00 | 18.80 | 0.00 | 46 | 1010.8 |
| 20260504044633 | 18 | 181 | 8.0 | 27.4 | 0.00 | 18.80 | 0.00 | 51 | 1010.7 |
| 20260504044120 | 18 | 120 | 4.8 | 27.4 | 0.00 | 18.80 | 0.00 | 56 | 1010.7 |
| 20260504043633 | 18 | 134 | 8.0 | 22.5 | 0.00 | 18.80 | 0.00 | 54 | 1010.6 |
| 20260504043120 | 18 | 186 | 9.7 | 27.4 | 0.00 | 18.80 | 0.00 | 55 | 1010.5 |
| 20260504042628 | 18 | 172 | 9.7 | 27.4 | 0.00 | 18.80 | 0.00 | 55 | 1010.5 |
| 20260504042136 | 19 | 134 | 11.3 | 22.5 | 0.00 | 18.80 | 0.00 | 54 | 1010.5 |
| 20260504041628 | 18 | 120 | 14.5 | 29.0 | 0.00 | 18.80 | 0.00 | 54 | 1010.4 |
| 20260504041111 | 18 | 79 | 9.7 | 43.5 | 0.00 | 18.80 | 0.00 | 57 | 1010.3 |
| 20260504040623 | 18 | 136 | 14.5 | 43.5 | 0.00 | 18.80 | 0.00 | 56 | 1010.3 |
| 20260504040135 | 18 | 136 | 9.7 | 25.7 | 0.00 | 19.71 | 0.00 | 52 | 1010.2 |
| 20260504035621 | 18 | 144 | 9.7 | 33.8 | 0.00 | 19.71 | 0.00 | 55 | 1010.3 |
| 20260504035111 | 18 | 103 | 8.0 | 33.8 | 0.00 | 19.71 | 0.00 | 56 | 1010.3 |
| 20260504034619 | 19 | 139 | 9.7 | 27.4 | 0.00 | 19.71 | 0.00 | 54 | 1010.3 |
| 20260504034130 | 18 | 77 | 8.0 | 27.4 | 0.00 | 19.71 | 0.00 | 51 | 1010.3 |
| 20260504033618 | 19 | 115 | 8.0 | 22.5 | 0.00 | 19.71 | 0.00 | 53 | 1010.5 |
| 20260504033131 | 18 | 165 | 8.0 | 24.1 | 0.00 | 19.71 | 0.00 | 52 | 1010.3 |
| 20260504032618 | 18 | 128 | 9.7 | 25.7 | 0.00 | 19.71 | 0.00 | 50 | 1010.4 |
| 20260504032131 | 18 | 193 | 11.3 | 32.2 | 0.00 | 19.71 | 0.00 | 50 | 1010.2 |
| 20260504031613 | 18 | 138 | 12.9 | 32.2 | 0.00 | 19.71 | 0.00 | 51 | 1010.2 |
| 20260504031126 | 18 | 110 | 11.3 | 33.8 | 0.00 | 19.71 | 0.00 | 51 | 1010.1 |
| 20260504030636 | 18 | 182 | 16.1 | 33.8 | 0.00 | 19.71 | 0.00 | 50 | 1010.2 |
| 20260504030143 | 18 | 179 | 12.9 | 35.4 | 0.00 | 19.89 | 0.00 | 51 | 1010.1 |
| 20260504025635 | 18 | 166 | 11.3 | 29.0 | 0.00 | 19.89 | 0.00 | 52 | 1010.0 |
| 20260504025143 | 18 | 157 | 9.7 | 33.8 | 0.00 | 19.89 | 0.00 | 51 | 1010.0 |
| 20260504024635 | 18 | 154 | 9.7 | 33.8 | 0.00 | 19.89 | 0.00 | 53 | 1010.0 |
| 20260504024122 | 18 | 174 | 11.3 | 33.8 | 0.00 | 19.89 | 0.00 | 51 | 1010.0 |
| 20260504023635 | 18 | 161 | 12.9 | 33.8 | 0.00 | 19.89 | 0.00 | 51 | 1009.8 |
| 20260504023120 | 18 | 184 | 9.7 | 25.7 | 0.00 | 19.89 | 0.00 | 51 | 1009.9 |
| 20260504022614 | 17 | 162 | 9.7 | 25.7 | 0.00 | 19.89 | 0.00 | 53 | 1009.8 |
| 20260504022118 | 17 | 161 | 11.3 | 22.5 | 0.00 | 19.89 | 0.00 | 51 | 1009.9 |
| 20260504021631 | 17 | 124 | 8.0 | 30.6 | 0.00 | 19.89 | 0.00 | 50 | 1009.9 |
| 20260504021117 | 17 | 102 | 9.7 | 37.0 | 0.00 | 19.89 | 0.00 | 49 | 1010.2 |
| 20260504020631 | 17 | 180 | 12.9 | 25.7 | 0.00 | 19.89 | 0.00 | 50 | 1010.0 |
| 20260504020117 | 17 | 122 | 14.5 | 38.6 | 0.00 | 19.99 | 0.00 | 51 | 1009.7 |
| 20260504015630 | 18 | 122 | 8.0 | 24.1 | 0.00 | 19.99 | 0.00 | 51 | 1009.7 |
| 20260504015117 | 18 | 143 | 12.9 | 24.1 | 0.00 | 19.99 | 0.00 | 51 | 1009.7 |
| 20260504014626 | 18 | 26 | 4.8 | 27.4 | 0.00 | 19.99 | 0.00 | 53 | 1009.7 |
| 20260504014113 | 17 | 203 | 11.3 | 25.7 | 0.00 | 19.99 | 0.00 | 55 | 1009.9 |
| 20260504013626 | 17 | 107 | 9.7 | 32.2 | 0.00 | 19.99 | 0.00 | 58 | 1009.8 |
| 20260504013132 | 17 | 153 | 14.5 | 32.2 | 0.00 | 19.99 | 0.00 | 58 | 1009.7 |
| 20260504012622 | 17 | 168 | 14.5 | 43.5 | 0.00 | 19.99 | 0.00 | 58 | 1009.6 |
| 20260504012135 | 17 | 121 | 17.7 | 43.5 | 0.00 | 19.99 | 0.00 | 59 | 1009.5 |
| 20260504011622 | 17 | 136 | 16.1 | 32.2 | 0.00 | 19.99 | 0.00 | 58 | 1009.6 |
| 20260504011156 | 17 | 132 | 9.7 | 38.6 | 0.00 | 19.99 | 0.00 | 60 | 1009.4 |
| 20260504010638 | 17 | 115 | 12.9 | 38.6 | 0.00 | 19.99 | 0.00 | 61 | 1009.0 |
| 20260504010130 | 17 | 167 | 16.1 | 33.8 | 0.00 | 19.99 | 0.00 | 60 | 1008.9 |
| 20260504005638 | 17 | 128 | 8.0 | 33.8 | 0.00 | 19.99 | 0.00 | 61 | 1009.0 |
| 20260504005130 | 16 | 139 | 12.9 | 41.8 | 0.00 | 19.99 | 0.00 | 62 | 1009.0 |
| 20260504004617 | 16 | 162 | 6.4 | 45.1 | 0.00 | 19.99 | 0.00 | 63 | 1008.8 |
| 20260504004152 | 17 | 100 | 14.5 | 40.2 | 0.00 | 19.99 | 0.00 | 62 | 1008.9 |
| 20260504003617 | 17 | 158 | 12.9 | 27.4 | 0.00 | 19.99 | 0.00 | 64 | 1008.8 |
| 20260504003110 | 16 | 125 | 11.3 | 30.6 | 0.00 | 19.99 | 0.00 | 63 | 1008.6 |
| 20260504002622 | 16 | 122 | 16.1 | 32.2 | 0.00 | 19.99 | 0.00 | 63 | 1008.5 |
| 20260504002152 | 16 | 203 | 12.9 | 33.8 | 0.00 | 19.99 | 0.00 | 63 | 1008.6 |
| 20260504001618 | 16 | 46 | 16.1 | 33.8 | 0.00 | 19.99 | 0.00 | 63 | 1008.5 |
| 20260504001131 | 16 | 109 | 14.5 | 33.8 | 0.00 | 19.99 | 0.00 | 63 | 1008.4 |
| 20260504000618 | 16 | 118 | 14.5 | 37.0 | 0.00 | 19.99 | 0.00 | 63 | 1008.2 |
| 20260504000152 | 16 | 85 | 16.1 | 35.4 | 0.00 | 20.09 | 0.00 | 63 | 1008.6 |
| 20260503235618 | 16 | 123 | 14.5 | 35.4 | 0.00 | 20.09 | 0.00 | 65 | 1008.2 |
| 20260503235131 | 16 | 240 | 11.3 | 24.1 | 0.00 | 20.09 | 0.00 | 66 | 1008.2 |
| 20260503234613 | 16 | 215 | 12.9 | 27.4 | 0.00 | 20.09 | 0.00 | 67 | 1008.2 |
| 20260503234122 | 15 | 96 | 11.3 | 27.4 | 0.00 | 20.09 | 0.00 | 68 | 1008.2 |
| 20260503233636 | 15 | 136 | 9.7 | 22.5 | 0.00 | 20.09 | 0.00 | 68 | 1008.0 |
| 20260503233142 | 15 | 129 | 6.4 | 35.4 | 0.00 | 20.09 | 0.00 | 68 | 1007.9 |
| 20260503232633 | 15 | 124 | 14.5 | 35.4 | 0.00 | 20.09 | 0.00 | 67 | 1007.9 |
| 20260503232118 | 15 | 153 | 9.7 | 32.2 | 0.00 | 20.09 | 0.00 | 67 | 1007.8 |
| 20260503231628 | 15 | 95 | 9.7 | 29.0 | 0.00 | 20.09 | 0.00 | 67 | 1007.7 |
| 20260503231112 | 15 | 135 | 12.9 | 32.2 | 0.00 | 20.09 | 0.00 | 66 | 1007.7 |
| 20260503230613 | 15 | 185 | 16.1 | 30.6 | 0.00 | 20.09 | 0.00 | 66 | 1007.5 |
| 20260503225634 | 15 | 135 | 8.0 | 22.5 | 0.00 | 20.09 | 0.00 | 65 | 1007.4 |
| 20260503225119 | 15 | 89 | 6.4 | 32.2 | 0.00 | 20.09 | 0.00 | 65 | 1007.3 |
| 20260503224633 | 15 | 114 | 11.3 | 32.2 | 0.00 | 20.09 | 0.00 | 66 | 1007.3 |
| 20260503224144 | 15 | 131 | 6.4 | 22.5 | 0.00 | 20.09 | 0.00 | 66 | 1007.0 |
| 20260503223635 | 15 | 129 | 8.0 | 24.1 | 0.00 | 20.09 | 0.00 | 65 | 1007.2 |
| 20260503223119 | 15 | 136 | 9.7 | 35.4 | 0.00 | 20.09 | 0.00 | 65 | 1007.1 |
| 20260503222611 | 15 | 122 | 17.7 | 33.8 | 0.00 | 20.09 | 0.00 | 63 | 1007.0 |
| 20260503222122 | 15 | 194 | 12.9 | 33.8 | 0.00 | 20.09 | 0.00 | 63 | 1007.0 |
| 20260503221613 | 15 | 144 | 12.9 | 27.4 | 0.00 | 20.09 | 0.00 | 63 | 1006.6 |
| 20260503221111 | 15 | 107 | 12.9 | 27.4 | 0.00 | 20.09 | 0.00 | 65 | 1006.4 |
| 20260503220621 | 15 | 125 | 6.4 | 32.2 | 0.00 | 20.09 | 0.00 | 67 | 1006.4 |
| 20260503220132 | 15 | 231 | 14.5 | 37.0 | 0.00 | 20.60 | 0.00 | 67 | 1006.1 |
| 20260503215616 | 15 | 134 | 9.7 | 24.1 | 0.00 | 20.60 | 0.00 | 70 | 1005.9 |
| 20260503215129 | 15 | 117 | 12.9 | 27.4 | 0.00 | 20.60 | 0.00 | 72 | 1006.0 |
| 20260503214611 | 15 | 118 | 9.7 | 27.4 | 0.00 | 20.60 | 0.00 | 72 | 1006.0 |
| 20260503213637 | 15 | 158 | 14.5 | 33.8 | 0.00 | 20.60 | 0.00 | 69 | 1005.5 |
| 20260503213138 | 15 | 117 | 12.9 | 24.1 | 0.00 | 20.60 | 0.00 | 71 | 1005.5 |
| 20260503212628 | 15 | 96 | 9.7 | 16.1 | 0.00 | 20.60 | 0.00 | 71 | 1005.4 |
| 20260503212113 | 15 | 134 | 6.4 | 22.5 | 0.00 | 20.60 | 0.00 | 72 | 1005.4 |
| 20260503211621 | 15 | 132 | 3.2 | 22.5 | 0.00 | 20.60 | 0.00 | 73 | 1004.9 |
| 20260503211130 | 15 | 153 | 4.8 | 16.1 | 0.00 | 20.60 | 0.00 | 73 | 1004.8 |
| 20260503210614 | 15 | 128 | 4.8 | 14.5 | 0.00 | 20.60 | 0.00 | 73 | 1004.7 |
| 20260503210134 | 15 | 145 | 4.8 | 16.1 | 0.00 | 20.60 | 0.00 | 73 | 1004.8 |
| 20260503205622 | 15 | 117 | 8.0 | 19.3 | 0.00 | 20.60 | 0.00 | 73 | 1004.8 |
| 20260503205129 | 15 | 139 | 6.4 | 19.3 | 0.00 | 20.60 | 0.00 | 73 | 1004.7 |
| 20260503204611 | 15 | 167 | 3.2 | 14.5 | 0.00 | 20.60 | 0.00 | 73 | 1004.8 |
| 20260503204143 | 15 | 153 | 6.4 | 14.5 | 0.00 | 20.60 | 0.00 | 73 | 1004.8 |
| 20260503203631 | 15 | 151 | 4.8 | 16.1 | 0.00 | 20.60 | 0.00 | 73 | 1004.6 |
| 20260503203112 | 15 | 152 | 6.4 | 17.7 | 0.00 | 20.60 | 0.00 | 73 | 1004.7 |
| 20260503202622 | 15 | 129 | 8.0 | 17.7 | 0.00 | 20.60 | 0.00 | 73 | 1004.6 |
| 20260503202133 | 15 | 94 | 6.4 | 19.3 | 0.00 | 20.60 | 0.00 | 72 | 1004.8 |
| 20260503201615 | 15 | 123 | 8.0 | 19.3 | 0.00 | 20.60 | 0.00 | 73 | 1004.6 |
| 20260503201121 | 15 | 138 | 6.4 | 20.9 | 0.00 | 20.60 | 0.00 | 73 | 1004.6 |
| 20260503200652 | 15 | 163 | 6.4 | 22.5 | 0.00 | 20.60 | 0.00 | 73 | 1004.6 |
| 20260503200114 | 15 | 72 | 6.4 | 25.7 | 0.00 | 20.60 | 0.00 | 73 | 1004.6 |
| 20260503195645 | 15 | 137 | 9.7 | 25.7 | 0.00 | 20.60 | 0.00 | 73 | 1004.7 |
| 20260503195134 | 15 | 115 | 4.8 | 17.7 | 0.00 | 20.60 | 0.00 | 73 | 1004.6 |
| 20260503194616 | 15 | 146 | 6.4 | 27.4 | 0.00 | 20.60 | 0.00 | 73 | 1004.4 |
| 20260503194147 | 15 | 119 | 12.9 | 27.4 | 0.00 | 20.60 | 0.00 | 73 | 1004.5 |
| 20260503193630 | 15 | 162 | 3.2 | 11.3 | 0.00 | 20.60 | 0.00 | 74 | 1004.4 |
| 20260503193113 | 15 | 127 | 1.6 | 12.9 | 0.00 | 20.60 | 0.00 | 74 | 1004.2 |
| 20260503192622 | 15 | 160 | 3.2 | 14.5 | 0.00 | 20.60 | 0.00 | 74 | 1004.3 |
| 20260503192133 | 15 | 103 | 6.4 | 19.3 | 0.00 | 20.60 | 0.00 | 73 | 1004.3 |
| 20260503191615 | 15 | 115 | 6.4 | 16.1 | 0.00 | 20.60 | 0.00 | 74 | 1004.3 |
| 20260503191146 | 15 | 151 | 8.0 | 16.1 | 0.00 | 20.60 | 0.00 | 74 | 1004.5 |
| 20260503190635 | 15 | 124 | 3.2 | 12.9 | 0.00 | 20.60 | 0.00 | 74 | 1004.5 |
| 20260503190116 | 15 | 123 | 4.8 | 25.7 | 0.00 | 20.60 | 0.00 | 73 | 1004.6 |
| 20260503185124 | 15 | 140 | 8.0 | 20.9 | 0.00 | 20.60 | 0.00 | 73 | 1004.5 |
| 20260503184634 | 16 | 129 | 8.0 | 20.9 | 0.00 | 20.60 | 0.00 | 74 | 1004.5 |
| 20260503184118 | 16 | 122 | 4.8 | 25.7 | 0.00 | 20.60 | 0.00 | 74 | 1004.2 |
| 20260503183627 | 16 | 129 | 11.3 | 25.7 | 0.00 | 20.60 | 0.00 | 73 | 1004.3 |
| 20260503183134 | 16 | 129 | 11.3 | 24.1 | 0.00 | 20.60 | 0.00 | 73 | 1004.2 |
| 20260503182617 | 16 | 130 | 8.0 | 16.1 | 0.00 | 20.60 | 0.00 | 73 | 1004.1 |
| 20260503182127 | 16 | 147 | 8.0 | 22.5 | 0.00 | 20.60 | 0.00 | 74 | 1004.0 |
| 20260503181633 | 16 | 87 | 6.4 | 22.5 | 0.00 | 20.60 | 0.00 | 74 | 1004.1 |
| 20260503181115 | 16 | 122 | 3.2 | 17.7 | 0.00 | 20.60 | 0.00 | 74 | 1004.1 |
| 20260503180625 | 16 | 130 | 4.8 | 19.3 | 0.00 | 20.60 | 0.00 | 74 | 1004.1 |
| 20260503180133 | 16 | 115 | 8.0 | 17.7 | 0.00 | 20.60 | 0.00 | 74 | 1004.1 |
| 20260503175617 | 16 | 124 | 6.4 | 17.7 | 0.00 | 20.60 | 0.00 | 74 | 1004.1 |
| 20260503175128 | 16 | 174 | 4.8 | 16.1 | 0.00 | 20.60 | 0.00 | 75 | 1004.2 |
| 20260503174611 | 16 | 107 | 4.8 | 19.3 | 0.00 | 20.60 | 0.00 | 75 | 1004.2 |
| 20260503174133 | 16 | 114 | 6.4 | 19.3 | 0.00 | 20.60 | 0.00 | 75 | 1004.1 |
| 20260503173619 | 16 | 140 | 9.7 | 22.5 | 0.00 | 20.60 | 0.00 | 74 | 1004.0 |
| 20260503173149 | 16 | 128 | 8.0 | 20.9 | 0.00 | 20.60 | 0.00 | 74 | 1004.0 |
| 20260503172631 | 16 | 103 | 6.4 | 20.9 | 0.00 | 20.60 | 0.00 | 75 | 1004.2 |
| 20260503172120 | 16 | 129 | 6.4 | 16.1 | 0.00 | 20.60 | 0.00 | 75 | 1003.9 |
| 20260503171630 | 16 | 102 | 4.8 | 19.3 | 0.00 | 20.60 | 0.00 | 75 | 1004.0 |
| 20260503171114 | 16 | 106 | 8.0 | 16.1 | 0.00 | 20.60 | 0.00 | 76 | 1003.9 |
| 20260503170622 | 16 | 127 | 4.8 | 14.5 | 0.00 | 20.60 | 0.00 | 76 | 1003.9 |
| 20260503170153 | 16 | 135 | 8.0 | 19.3 | 0.00 | 20.60 | 0.00 | 76 | 1003.8 |
| 20260503160113 | 16 | 136 | 9.7 | 22.5 | 0.00 | 20.60 | 0.00 | 77 | 1003.1 |
| 20260503150611 | 16 | 124 | 4.8 | 20.9 | 0.00 | 20.60 | 0.00 | 75 | 1002.9 |
| 20260503150120 | 16 | 58 | 8.0 | 20.9 | 0.00 | 20.60 | 0.00 | 75 | 1003.0 |
| 20260503140121 | 16 | 163 | 4.8 | 20.9 | 0.00 | 20.60 | 4.11 | 79 | 1002.8 |
| 20260503131118 | 15 | 134 | 3.2 | 9.7 | 0.00 | 20.60 | 4.11 | 83 | 1003.0 |
| 20260503130627 | 16 | 117 | 3.2 | 9.7 | 0.00 | 20.60 | 4.11 | 83 | 1002.8 |
| 20260503130136 | 16 | 207 | 3.2 | 12.9 | 0.00 | 20.60 | 4.11 | 84 | 1002.9 |
| 20260503120111 | 16 | 160 | 3.2 | 12.9 | 0.10 | 20.60 | 4.11 | 87 | 1002.0 |